STARLINK-1261 (45571 NORAD) Tracking and Keplerian Element Data

This shows tracking and keplerian element data for the satellite.

Feedback or suggestion? Click here.




ElementValue
Catalog45571
NameSTARLINK-1261
Epoch Orbit626
Epoch Day149.16667824
Epoch Year2020
RAAN224.9584
Inclination52.9985
Eccentricity0.0001036
Argument of Perigee99.8606
Mean Anonmoly101.5694
Mean Motion15.62764898
Decay Rate0.00046279
L11 45571U 20025AS 20149.16667824 .00046279 00000-0 50813-3 0 9995
L22 45571 52.9985 224.9584 0001036 99.8606 101.5694 15.62764898 6260

Live tracking and technical data element details for STARLINK-1261 (NORAD 45571). STARLINK-1261 can be tracked NOW for your location showing map with azimuth and elevation plus other details from your city location.

Track the satellite on the map from your city or location and see movement details for azimuth, elevation, latitude, longitude, range, height, and movement on the map or in text.







IsCatalogInMostPopularTable: catalog: 45571, numindb: 9
Update: records affected: 1



GetName: 45571 STARLINK-1261

Hit Count: updated at: Sat, 30 May 2020 14:01:03 GMT